This is the latest recevied weather packets stored in our database for station/object HB9TJR-3. If no packets are shown the sender has not sent any weather packets the latest 1 day(s).
| Time | Temp. | Humidity | Pressure | Rain* | Wind** | Luminosity | Snow |
|---|---|---|---|---|---|---|---|
| 1777994854 | 8.89° C | 92% | 860.1 hPa | 0 mm | 0 m/s | - | - |
| 1777993895 | 9.44° C | 95% | 860 hPa | 0 mm | 0 m/s | - | - |
| 1777992934 | 9.44° C | 92% | 859.9 hPa | 0 mm | 0 m/s | - | - |
| 1777991974 | 9.44° C | 93% | 859.9 hPa | 0 mm | 0 m/s | - | - |
| 1777991014 | 8.89° C | 94% | 859.9 hPa | 0 mm | 0 m/s | - | - |
| 1777990054 | 8.89° C | 95% | 859.8 hPa | 0 mm | 0 m/s | - | - |
| 1777989094 | 8.89° C | 96% | 859.9 hPa | 0 mm | 0 m/s | - | - |
| 1777988134 | 8.33° C | 96% | 859.8 hPa | 0 mm | 0 m/s | - | - |
| 1777987174 | 8.33° C | 95% | 859.9 hPa | 0 mm | 0 m/s | - | - |
| 1777985254 | 8.89° C | 92% | 859.9 hPa | 0 mm | 0 m/s | - | - |
| 1777984294 | 8.89° C | 90% | 859.8 hPa | 0 mm | 0 m/s | - | - |
| 1777983333 | 8.33° C | 91% | 859.9 hPa | 0 mm | 0 m/s | - | - |
| 1777982374 | 7.78° C | 92% | 860.1 hPa | 0 mm | 0 m/s | - | - |
| 1777981415 | 8.33° C | 93% | 860.2 hPa | 0 mm | 0 m/s | - | - |
| 1777980454 | 7.78° C | 97% | 860.1 hPa | 0 mm | 0 m/s | - | - |
| 1777979494 | 8.33° C | 97% | 860.1 hPa | 0 mm | 0 m/s | - | - |
| 1777978533 | 8.33° C | 97% | 859.9 hPa | 0 mm | 0 m/s | - | - |
| 1777977574 | 8.33° C | 97% | 859.9 hPa | 0 mm | 0 m/s | - | - |
| 1777975654 | 8.33° C | 90% | 859.9 hPa | 0 mm | 0 m/s | - | - |
| 1777974694 | 8.33° C | 89% | 859.9 hPa | 0 mm | 0 m/s | - | - |
| 1777973734 | 8.33° C | 89% | 859.8 hPa | 0 mm | 0 m/s | - | - |
| 1777972774 | 8.33° C | 88% | 859.7 hPa | 0 mm | 0 m/s | - | - |
| 1777971814 | 8.33° C | 89% | 859.7 hPa | 0 mm | 0 m/s | - | - |
| 1777970854 | 8.33° C | 89% | 859.6 hPa | 0 mm | 0 m/s | - | - |
| 1777969894 | 7.78° C | 89% | 859.8 hPa | 0 mm | 0 m/s | - | - |
* Rain latest hour (hover to see other rain measurements)
** Current wind speed in m/s (hover to see current wind gust speed)